[[{"header":{"parameterUnit":"m.s-1","parameterCategory":1,"la1":30.2991,"la2":30.254,"lo1":-89.0895,"lo2":-89.0444,"dy":0.0017,"dx":0.0017,"nx":28,"ny":28,"refTime":"2024-02-24T03:00:00:Z","depth":0,"parameterNumber":2,"parameterNumberName":"U-component_of_WINDS"},"data":[0,0,0,0,0,0,0,0,0,0,0,0,0,0,0,0,0,0,0,0,0,0,0,0,0,0,0,0,0,0,0,0,0,0,0,0,0,0,0,0,0,0,0,0,0,0,0,0,0,0,0,0,0,0,0,0,0,0,0.3751,0.3751,0,0.3759,0.3759,0.3759,0.3748,0.3748,0.3747,0.3747,0.3756,0.3756,0.3757,0,0,0,0,0,0,0,0,0,0,0,0,0,0.3726,0.3727,0.3751,0.3751,0.3751,0.3759,0.3759,0.3759,0.3748,0.3748,0.3747,0.3747,0.3756,0.3756,0.3757,0,0,0,0,0,0,0,0,0,0,0,0,0,0.3736,0.3727,0.3751,0.3746,0.3746,0.3759,0.3759,0.3759,0.3748,0.3748,0.3747,0.3746,0.3755,0.3756,0.3757,0.3775,0,0,0.376,0.376,0,0,0,0,0,0,0,0,0.3735,0.3737,0.3747,0.3747,0.3746,0.3752,0.3754,0.3764,0.3748,0.3747,0.3747,0.3746,0.3755,0.3756,0.3759,0.3775,0.3775,0.376,0.376,0.3761,0.3761,0,0,0,0,0,0,0,0.3735,0.3736,0.3754,0.3747,0.3747,0.3744,0.3745,0.3756,0.3754,0.3747,0.3747,0.3748,0.3755,0.3758,0.3759,0.3776,0.376,0.3761,0.3761,0.3762,0.3809,0.3809,0,0,0,0,0,0,0.3734,0.3736,0.3754,0.3754,0.3739,0.3745,0.3746,0.3751,0.3754,0.3754,0.3748,0.3747,0.3757,0.3758,0.3759,0.3781,0.3761,0.3762,0.3762,0.3808,0.3809,0.3809,0,0,0,0,0,0,0.3734,0.3736,0.3753,0.3745,0.3747,0.3746,0.3752,0.3751,0.3754,0.3755,0.3755,0.3752,0.3756,0.3758,0.3771,0.3781,0.3762,0.3763,0.3807,0.3808,0.3809,0.3824,0,0,0,0,0,0,0.3733,0.3736,0.3742,0.3745,0.3747,0.3765,0.3752,0.3752,0.3756,0.3755,0.3758,0.3758,0.3756,0.377,0.3772,0.3782,0.3764,0.3806,0.3807,0.3809,0.3823,0.3826,0.3828,0,0,0,0,0,0.3732,0.3746,0.3743,0.3745,0.3755,0.3765,0.3767,0.3764,0.3757,0.3763,0.3764,0.3758,0.378,0.3771,0.3774,0.3784,0.3805,0.3807,0.3809,0.3822,0.3825,0.3828,0,0,0,0,0,0,0.3744,0.3746,0.3743,0.3757,0.3761,0.3764,0.3772,0.3767,0.3774,0.3772,0.3768,0.3769,0.3784,0.3785,0.3776,0.3802,0.3791,0.3794,0.3801,0.3804,0.3807,0.3806,0.3764,0,0,0,0,0,0.3749,0.3757,0.3758,0.3771,0.3773,0.3772,0.3777,0.3774,0.3778,0.378,0.3781,0.3786,0.3794,0.3799,0.3806,0.3823,0.3824,0.3832,0.3834,0.3836,0.3838,0.3849,0.3853,0.3815,0.3815,0.3815,0,0,0.3758,0.376,0.3765,0.3773,0.3776,0.3785,0.3774,0.3783,0.379,0.3781,0.3794,0.3796,0.38,0.3816,0.3823,0.3818,0.3849,0.3838,0.384,0.3841,0.3851,0.3855,0.3858,0.3816,0.3815,0.3815,0,0,0.3779,0.3781,0.3792,0.3796,0.38,0.38,0.3803,0.3806,0.3807,0.382,0.3814,0.3822,0.3835,0.3839,0.3843,0.3867,0.3862,0.3869,0.3883,0.3894,0.3897,0.3899,0.3909,0.3912,0.3871,0.3871,0.3871,0,0.3789,0.3802,0.3799,0.3809,0.3814,0.3807,0.3819,0.3822,0.3829,0.3832,0.3826,0.3844,0.3846,0.3864,0.387,0.3873,0.3876,0.3869,0.3896,0.3899,0.3901,0.3911,0.3914,0.3872,0.3872,0.3872,0.3872,0,0.3816,0.3825,0.3834,0.3841,0.3846,0.3858,0.3857,0.3863,0.386,0.386,0.3874,0.3877,0.3886,0.3889,0.3887,0.3907,0.3903,0.3897,0.3886,0.3906,0.3915,0.3918,0.3874,0.3873,0.3873,0.3873,0,0,0.3844,0.385,0.3854,0.3857,0.3862,0.387,0.3881,0.3889,0.3895,0.39,0.391,0.3922,0.3917,0.3921,0.3919,0.3928,0.3948,0.392,0.392,0.3926,0.3972,0.3977,0.3981,0.3945,0.3946,0.3946,0.3972,0,0.3866,0.3886,0.3884,0.3903,0.3912,0.3906,0.3916,0.392,0.3921,0.3929,0.393,0.394,0.3931,0.3934,0.3942,0.3944,0.3957,0.3942,0.3955,0.3956,0.3955,0.3986,0.3991,0.4015,0.3975,0.3976,0.3976,0,0.3894,0.3901,0.3921,0.3926,0.393,0.3939,0.3947,0.3954,0.396,0.396,0.3966,0.3962,0.3975,0.3963,0.3981,0.397,0.3976,0.3977,0.3978,0.398,0.3967,0.3989,0.4023,0.4027,0.3981,0.3981,0.398,0,0.3914,0.3928,0.3942,0.3946,0.3951,0.3958,0.3961,0.3966,0.3971,0.3979,0.3982,0.3991,0.3996,0.4003,0.4002,0.3994,0.402,0.4009,0.4021,0.4021,0.4027,0.4027,0.4063,0.403,0.403,0.403,0.4029,0,0.3939,0.3952,0.3952,0.396,0.3975,0.3973,0.3987,0.3989,0.3994,0.4003,0.3998,0.4007,0.4006,0.4015,0.4015,0.403,0.4032,0.4033,0.4033,0.4034,0.4034,0.4037,0.4036,0.403,0.403,0.403,0.403,0,0.3964,0.3964,0.3979,0.3984,0.3985,0.3996,0.4,0.4009,0.401,0.4022,0.4025,0.4026,0.4037,0.4037,0.4049,0.4049,0.4068,0.4066,0.4066,0.4066,0.4079,0.4078,0.412,0.4126,0.4087,0.4088,0.4088,0,0.398,0.399,0.3996,0.4002,0.4006,0.4015,0.4021,0.402,0.4026,0.4034,0.4042,0.4052,0.4061,0.4079,0.4081,0.4091,0.4089,0.4103,0.4091,0.4092,0.4091,0.409,0.4092,0.4106,0.4106,0.4106,0.4107,0,0.401,0.401,0.4018,0.4027,0.4035,0.4042,0.4048,0.4053,0.4053,0.406,0.4072,0.4078,0.4091,0.4102,0.4112,0.4115,0.4111,0.4111,0.4114,0.4116,0.4116,0.4117,0.4074,0.411,0.4109,0.4109,0.4109,0.4109,0.4031,0.404,0.4046,0.4057,0.4061,0.4068,0.4077,0.4079,0.4088,0.4099,0.4097,0.411,0.4117,0.4129,0.4134,0.4144,0.4139,0.4144,0.4146,0.4147,0.4149,0.4114,0.4146,0.4146,0.4146,0.4146,0.4145,0,0.4061,0.4065,0.4075,0.4084,0.4093,0.4088,0.4095,0.4103,0.4114,0.412,0.4129,0.4143,0.4153,0.4157,0.4168,0.4176,0.4174,0.4179,0.4178,0.4179,0.4152,0.4149,0.418,0.418,0.418,0.418,0.418,0.418,0.4078,0.4093,0.4094,0.4112,0.4116,0.4129,0.4133,0.414,0.4145,0.416,0.4169,0.4172,0.4177,0.4189,0.4199,0.42,0.4204,0.421,0.421,0.4185,0.4181,0.4178,0.4174,0.421,0.421,0.4236,0.4236,0.4237]},{"header":{"parameterUnit":"m.s-1","parameterCategory":1,"la1":30.2991,"la2":30.254,"lo1":-89.0895,"lo2":-89.0444,"dy":0.0017,"dx":0.0017,"nx":28,"ny":28,"refTime":"2024-02-24T03:00:00:Z","depth":0,"parameterNumber":3,"parameterNumberName":"V-component_of_WINDS"},"data":[0,0,0,0,0,0,0,0,0,0,0,0,0,0,0,0,0,0,0,0,0,0,0,0,0,0,0,0,0,0,0,0,0,0,0,0,0,0,0,0,0,0,0,0,0,0,0,0,0,0,0,0,0,0,0,0,0,0,-2.3217,-2.3218,0,-2.3271,-2.3271,-2.3272,-2.3269,-2.3268,-2.3268,-2.3267,-2.3319,-2.3321,-2.3323,0,0,0,0,0,0,0,0,0,0,0,0,0,-2.3111,-2.3113,-2.3217,-2.3218,-2.3218,-2.3271,-2.3271,-2.3272,-2.3269,-2.3268,-2.3268,-2.3267,-2.3318,-2.3321,-2.3323,0,0,0,0,0,0,0,0,0,0,0,0,0,-2.316,-2.3114,-2.3217,-2.3223,-2.3225,-2.327,-2.3271,-2.3272,-2.327,-2.3268,-2.3267,-2.3266,-2.3318,-2.3321,-2.3324,-2.3366,0,0,-2.3333,-2.3335,0,0,0,0,0,0,0,0,-2.3157,-2.3164,-2.3222,-2.3223,-2.3224,-2.3262,-2.3253,-2.3303,-2.327,-2.3252,-2.3267,-2.3266,-2.3301,-2.3305,-2.3318,-2.3368,-2.337,-2.3334,-2.3335,-2.3337,-2.3338,0,0,0,0,0,0,0,-2.3154,-2.3161,-2.3238,-2.3223,-2.3224,-2.3223,-2.3229,-2.3262,-2.3282,-2.3254,-2.3254,-2.326,-2.3301,-2.3315,-2.3319,-2.3371,-2.3333,-2.3336,-2.3338,-2.3339,-2.3459,-2.3461,0,0,0,0,0,0,-2.3149,-2.3159,-2.3236,-2.324,-2.3187,-2.3226,-2.3232,-2.3251,-2.3282,-2.3286,-2.3261,-2.326,-2.331,-2.3315,-2.3321,-2.3372,-2.3337,-2.334,-2.3341,-2.3458,-2.346,-2.3461,0,0,0,0,0,0,-2.3147,-2.3156,-2.3234,-2.3199,-2.3209,-2.3229,-2.325,-2.3253,-2.3266,-2.3288,-2.3291,-2.3271,-2.3309,-2.3316,-2.3355,-2.3374,-2.3341,-2.3344,-2.3457,-2.3459,-2.346,-2.3476,0,0,0,0,0,0,-2.3144,-2.3155,-2.3172,-2.32,-2.3211,-2.3268,-2.3251,-2.3255,-2.3272,-2.3271,-2.3298,-2.3301,-2.3309,-2.335,-2.3358,-2.3378,-2.3346,-2.3455,-2.3457,-2.346,-2.3474,-2.3478,-2.3482,0,0,0,0,0,-2.314,-2.3173,-2.3173,-2.3182,-2.3232,-2.3269,-2.3276,-2.3284,-2.3273,-2.329,-2.3304,-2.33,-2.3371,-2.3354,-2.3363,-2.3384,-2.3454,-2.3457,-2.346,-2.3472,-2.3477,-2.3482,0,0,0,0,0,0,-2.3146,-2.3177,-2.3177,-2.322,-2.3242,-2.3269,-2.329,-2.329,-2.3315,-2.3313,-2.3322,-2.3328,-2.3367,-2.3379,-2.336,-2.3427,-2.3411,-2.3416,-2.3417,-2.3422,-2.3426,-2.3422,-2.3349,0,0,0,0,0,-2.3152,-2.318,-2.3206,-2.3241,-2.3253,-2.3269,-2.3286,-2.3291,-2.3314,-2.3323,-2.334,-2.3361,-2.3389,-2.3406,-2.3432,-2.3476,-2.3482,-2.3494,-2.3499,-2.3502,-2.3506,-2.353,-2.3536,-2.3471,-2.3471,-2.3471,0,0,-2.3165,-2.3186,-2.3203,-2.3243,-2.3261,-2.329,-2.3277,-2.3308,-2.3329,-2.3327,-2.3365,-2.3378,-2.3403,-2.3445,-2.3464,-2.3456,-2.3525,-2.3506,-2.3508,-2.351,-2.3534,-2.354,-2.3546,-2.3473,-2.3472,-2.3472,0,0,-2.3204,-2.3223,-2.3255,-2.3273,-2.3301,-2.3312,-2.332,-2.3347,-2.3356,-2.3394,-2.3394,-2.3419,-2.3466,-2.3484,-2.3499,-2.3546,-2.3544,-2.3554,-2.3575,-2.3599,-2.3604,-2.3609,-2.3626,-2.3632,-2.3558,-2.3558,-2.3558,0,-2.3217,-2.326,-2.3271,-2.3302,-2.332,-2.3321,-2.3354,-2.3371,-2.3405,-2.3417,-2.3409,-2.3468,-2.3485,-2.3531,-2.3543,-2.3555,-2.3564,-2.3551,-2.3603,-2.3608,-2.3612,-2.3629,-2.3635,-2.3559,-2.3559,-2.3559,-2.3559,0,-2.3275,-2.3305,-2.3328,-2.3362,-2.3383,-2.3414,-2.3429,-2.3448,-2.3452,-2.3464,-2.3504,-2.3524,-2.3555,-2.3566,-2.357,-2.3613,-2.3608,-2.3601,-2.3585,-2.3619,-2.3635,-2.3641,-2.3561,-2.3561,-2.356,-2.356,0,0,-2.3317,-2.3359,-2.3367,-2.3383,-2.3414,-2.3438,-2.3469,-2.3501,-2.3517,-2.3541,-2.3568,-2.3608,-2.3603,-2.362,-2.3626,-2.3647,-2.3683,-2.3637,-2.3638,-2.3645,-2.3733,-2.3738,-2.3745,-2.3682,-2.3684,-2.3685,-2.3731,0,-2.3359,-2.3417,-2.3428,-2.3478,-2.3506,-2.3508,-2.3536,-2.3558,-2.3571,-2.3596,-2.3609,-2.3638,-2.3628,-2.3639,-2.366,-2.3674,-2.3701,-2.3671,-2.3707,-2.3708,-2.3701,-2.3753,-2.3758,-2.38,-2.3737,-2.3738,-2.3739,0,-2.3416,-2.3443,-2.3496,-2.3524,-2.3537,-2.3562,-2.3592,-2.3616,-2.3641,-2.3649,-2.3669,-2.3673,-2.3706,-2.3689,-2.3735,-2.3714,-2.373,-2.3739,-2.3741,-2.3745,-2.3725,-2.3758,-2.3814,-2.382,-2.3748,-2.3748,-2.3747,0,-2.3442,-2.3491,-2.353,-2.3543,-2.3577,-2.3595,-2.361,-2.3634,-2.3653,-2.3679,-2.3691,-2.372,-2.3736,-2.3758,-2.377,-2.3757,-2.3815,-2.3799,-2.3822,-2.3822,-2.3833,-2.3833,-2.3893,-2.3844,-2.3844,-2.3844,-2.3843,0,-2.3487,-2.352,-2.3542,-2.3565,-2.3602,-2.3614,-2.365,-2.3664,-2.3686,-2.3712,-2.3716,-2.374,-2.3754,-2.378,-2.3789,-2.3826,-2.3833,-2.384,-2.3842,-2.384,-2.3839,-2.385,-2.3847,-2.3845,-2.3845,-2.3845,-2.3844,0,-2.3522,-2.3538,-2.358,-2.361,-2.3618,-2.3644,-2.3669,-2.3692,-2.3705,-2.3738,-2.3747,-2.3766,-2.3798,-2.3812,-2.385,-2.3856,-2.3898,-2.3898,-2.389,-2.3891,-2.3913,-2.3911,-2.3982,-2.3992,-2.3936,-2.3937,-2.3937,0,-2.355,-2.3575,-2.3608,-2.3627,-2.3643,-2.3672,-2.3691,-2.3704,-2.3724,-2.3756,-2.3775,-2.3807,-2.3833,-2.3883,-2.39,-2.393,-2.3931,-2.3954,-2.3935,-2.3932,-2.3931,-2.3929,-2.3932,-2.3957,-2.3957,-2.3958,-2.3958,0,-2.3598,-2.3605,-2.3633,-2.3665,-2.3688,-2.3713,-2.3738,-2.3752,-2.377,-2.3792,-2.3825,-2.3845,-2.3885,-2.3917,-2.3948,-2.3962,-2.3963,-2.3964,-2.3971,-2.3969,-2.3963,-2.3967,-2.3899,-2.3962,-2.3962,-2.3962,-2.3961,-2.3961,-2.363,-2.3653,-2.368,-2.3712,-2.3732,-2.3755,-2.3779,-2.3795,-2.3823,-2.3858,-2.3864,-2.3899,-2.3924,-2.3966,-2.3982,-2.401,-2.4004,-2.4014,-2.4016,-2.4018,-2.402,-2.3959,-2.4015,-2.4015,-2.4015,-2.4015,-2.4015,0,-2.3679,-2.3697,-2.3726,-2.3761,-2.3786,-2.3786,-2.3813,-2.3834,-2.3865,-2.3889,-2.3915,-2.3953,-2.3984,-2.4005,-2.4036,-2.4054,-2.4056,-2.4062,-2.4061,-2.4064,-2.4023,-2.4014,-2.4061,-2.4061,-2.4061,-2.4061,-2.4061,-2.4061,-2.3707,-2.3746,-2.3756,-2.3806,-2.3823,-2.3858,-2.3874,-2.3896,-2.3915,-2.3958,-2.3984,-2.3998,-2.4021,-2.4054,-2.4083,-2.4088,-2.4099,-2.4106,-2.4111,-2.4072,-2.4067,-2.4063,-2.4054,-2.4108,-2.4108,-2.415,-2.415,-2.4151]}]]